Flag Weather past 2 weeks in Ålesund, Norway

Now
46 °F

Low clouds.


Feels Like: 40 °F
Forecast: 43 / 47 °F
Wind: 14 mph from Northwest

Location: Alesund / Vigra

Current Time: Nov 24, 2014 at 5:17:38 PM

Latest Report: Nov 24, 2014 at 4:50 PM


Visibility: N/A

Pressure: 29.89 "Hg

Humidity: 87%

Dew point: 43 °F

Location of ÅlesundLocation

Historic Weather in Ålesund — Graph

°F

Ålesund temperature yesterday

Maximum temperature yesterday: 48 °F (at 11:20 AM)
Minimum temperature yesterday: 39 °F (at 12:20 AM)
Average temperature yesterday: 44 °F

Past Weeks' High & Low Weather Summary

 TemperatureHumidityPressure
High55 °F (Nov 13, 6:20 AM)94% (Nov 10, 10:50 AM)30.45 "Hg (Nov 10, 10:50 AM)
Low34 °F (Nov 17, 12:20 AM)44% (Nov 13, 5:20 AM)29.53 "Hg (Nov 9, 3:20 PM)
Average44 °F78%30.02 "Hg
* Reported Nov 9 3:20 PM — Nov 24 3:50 PM, Ålesund, Weather by CustomWeather, © 2014

Note: Actual official high and low records may vary slightly from our data, if they occured in-between our weather recording intervals... More about our weather records

Advertising

Ålesund weather history for previous 24 hours

 ConditionsComfort  
Time TempWeatherWind HumidityBarometerVisibility
3:50 PM
Nov 24
46 °FScattered showers. Partly cloudy.15 mph93%29.86 "HgN/A
3:20 PM46 °FLight rain. Broken clouds.13 mph93%29.83 "HgN/A
2:50 PM46 °FPartly sunny.15 mph93%29.83 "HgN/A
2:20 PM46 °FPartly sunny.17 mph87%29.83 "HgN/A
1:20 PM48 °FBroken clouds.20 mph87%29.80 "HgN/A
12:50 PM48 °FBroken clouds.16 mph82%29.80 "HgN/A
12:20 PM46 °FDrizzle. Broken clouds.17 mph87%29.80 "HgN/A
11:50 AM46 °FLight rain. Broken clouds.13 mph87%29.80 "HgN/A
11:20 AM46 °FLight rain. Broken clouds.21 mph87%29.77 "HgN/A
10:50 AM45 °FLight rain. Broken clouds.1 mph93%29.77 "HgN/A
10:20 AM45 °FRain. Broken clouds.6 mph93%29.77 "Hg5 mi
9:50 AM43 °FLight rain. Broken clouds.3 mph93%29.74 "HgN/A
9:20 AM45 °FLight rain. Broken clouds.7 mph87%29.74 "HgN/A
8:50 AM45 °FLight rain. Partly cloudy.12 mph87%29.74 "HgN/A
8:20 AM45 °FRain. Partly cloudy.14 mph93%29.71 "HgN/A
7:50 AM45 °FLight rain. Partly cloudy.2 mph93%29.68 "HgN/A
7:20 AM45 °FLight rain. Partly cloudy.10 mph87%29.68 "HgN/A
6:50 AM43 °FLight rain. Partly cloudy.10 mph87%29.68 "HgN/A
6:20 AM43 °FLight rain. Partly cloudy.9 mph87%29.68 "HgN/A
5:50 AM43 °FLight rain. Passing clouds.9 mph87%29.68 "HgN/A
5:20 AM43 °FLight rain. Passing clouds.9 mph87%29.71 "HgN/A
4:50 AM43 °FLight rain. Passing clouds.9 mph87%29.71 "HgN/A
4:20 AM43 °FLight rain. Overcast.9 mph87%29.71 "HgN/A
3:50 AM41 °FLight rain. Mostly cloudy.8 mph93%29.71 "HgN/A
3:20 AM41 °FLight rain. Mostly cloudy.9 mph93%29.71 "HgN/A
2:50 AM41 °FLight rain. Passing clouds.5 mph93%29.71 "HgN/A
2:20 AM41 °FLight rain. Mostly cloudy.3 mph93%29.71 "HgN/A
1:50 AM41 °FLight rain. Overcast.3 mph93%29.71 "HgN/A
1:20 AM41 °FDrizzle. Fog.5 mph93%29.71 "HgN/A
12:50 AM41 °FLight rain. Mostly cloudy.5 mph93%29.74 "HgN/A
12:20 AM43 °FLight rain. Passing clouds.7 mph93%29.74 "HgN/A
11:50 PM
Nov 23
43 °FLight rain. Passing clouds.7 mph87%29.74 "HgN/A
11:20 PM43 °FLight rain. Fog.7 mph87%29.74 "HgN/A
10:50 PM43 °FLight rain. Passing clouds.8 mph87%29.77 "HgN/A
10:20 PM43 °FLight rain. Passing clouds.12 mph87%29.77 "HgN/A
9:20 PM43 °FLight rain. Passing clouds.12 mph87%29.80 "HgN/A
8:20 PM43 °FLight rain. Passing clouds.12 mph87%29.83 "HgN/A
7:50 PM43 °FLight rain. Passing clouds.10 mph87%29.83 "HgN/A
7:20 PM43 °FLight rain. Passing clouds.13 mph87%29.83 "HgN/A
6:50 PM43 °FLight rain. Overcast.15 mph87%29.83 "HgN/A
6:20 PM45 °FLight rain. Passing clouds.14 mph81%29.86 "HgN/A
5:50 PM45 °FLight rain. Passing clouds.16 mph81%29.86 "HgN/A
5:20 PM45 °FLight rain. Passing clouds.16 mph81%29.89 "HgN/A
Weather by CustomWeather, © 2014

See weather overviewHow to use our weather pages